Location: Zagreb
(45.8000°N, 16.0000°E)
Time: 20:51:57
(UTC+01:00)

YUBILEINY - Pass Details

Date: 02 November 2020
Orbit: 1478 x 1509 km, 82.5° (Epoch: 01 December)

Event Time Altitude Azimuth Distance (km) Brightness Sun altitude
Rises 21:24:26 0° 349° (N) 4,611 ? -48.3°
Reaches altitude 10° 21:27:18 10° 348° (NNW) 3,627 ? -48.7°
Enters shadow 21:30:49 28° 346° (NNW) 2,488 ? -49.1°
